LiveATC.Net - Listen to live air traffic control over the Internet!


ICAO: LRTR  IATA: TSR   Airport: Traian Vuia International Airport
City: Timisoara
Country: Romania   Continent: Europe
LRTR METAR Weather: LRTR 110700Z 09003KT 2500 BR NSC 00/M01 Q1019
LRTR Flight Activity (FlightAware)
LRTR Tower
Feed Status: DOWN
Last heard on: 2016-12-11 10:00:03 (0 days 0 hours 0 minutes ago)
LRTR Tower Audio Archives
FacilityFrequency
ARAD Approach127.250
Timisoara Tower120.100


NOTICE

Unauthorized use prohibited. See LiveATC.net Terms of Service


Find LiveATC Audio Streams


Airport/ARTCC Code

Frequency
(e.g., 124.400, 128.75)
Site-wide search

Browse LiveATC Feeds
LiveATC Coverage Map
Top 50 LiveATC Feeds
Bad Weather Areas

LiveATC FAQ
Offer a LiveATC Feed
Contact LiveATC.net
Press Inquiries

LiveATC on iPhone
LiveATC on Android

Windows Phone
Windows 8/10

LiveATC Mobile
(Mobile browser)

ATC Audio Archives
Interesting Recordings

LiveATC Forums


Home Page
About LiveATC.net
Make a Donation
LiveATC Store

Terms of Use
Privacy Policy

Canadian Air Freqs

AIRMETs/SIGMETs

FAA Airport Status
Nat'l Airspace Status
Arrival Demand Charts


Server Software By:
Icecast.org
Liquidsoap